[[{"header":{"parameterUnit":"m.s-1","parameterCategory":1,"la1":30.2991,"la2":30.254,"lo1":-89.0895,"lo2":-89.0444,"dy":0.0017,"dx":0.0017,"nx":28,"ny":28,"refTime":"2024-10-18T21:00:00:Z","depth":0,"parameterNumber":2,"parameterNumberName":"U-component_of_WINDS"},"data":[0,0,0,0,0,0,0,0,0,0,0,0,0,0,0,0,0,0,0,0,0,0,0,0,0,0,0,0,0,0,0,0,0,0,0,0,0,0,0,0,0,0,0,0,0,0,0,0,0,0,0,0,0,0,0,0,0,0,-4.3536,-4.3536,0,-4.3559,-4.3559,-4.3559,-4.3371,-4.3366,-4.336,-4.3355,-4.3381,-4.3387,-4.3392,0,0,0,0,0,0,0,0,0,0,0,0,0,-4.333,-4.3335,-4.3536,-4.3536,-4.3536,-4.3559,-4.3559,-4.3559,-4.3372,-4.3365,-4.3359,-4.3353,-4.3379,-4.3386,-4.3393,0,0,0,0,0,0,0,0,0,0,0,0,0,-4.3393,-4.3337,-4.3536,-4.3445,-4.3438,-4.3559,-4.3559,-4.3559,-4.3373,-4.3365,-4.3357,-4.335,-4.3377,-4.3385,-4.3394,-4.3603,0,0,-4.3419,-4.3423,0,0,0,0,0,0,0,0,-4.339,-4.3401,-4.3458,-4.3452,-4.3443,-4.3454,-4.3496,-4.3574,-4.3375,-4.3398,-4.3355,-4.3346,-4.3412,-4.3417,-4.3439,-4.3604,-4.3605,-4.342,-4.3425,-4.3429,-4.3431,0,0,0,0,0,0,0,-4.3386,-4.3399,-4.3545,-4.3459,-4.345,-4.3404,-4.3404,-4.351,-4.3449,-4.3395,-4.3381,-4.3387,-4.3406,-4.3431,-4.3438,-4.3606,-4.342,-4.3427,-4.3432,-4.3436,-4.3944,-4.3952,0,0,0,0,0,0,-4.3393,-4.3397,-4.3544,-4.3545,-4.3397,-4.3414,-4.3414,-4.3458,-4.3447,-4.3438,-4.3393,-4.3378,-4.3421,-4.3428,-4.3438,-4.3682,-4.3428,-4.3436,-4.3441,-4.3935,-4.3945,-4.3955,0,0,0,0,0,0,-4.339,-4.3408,-4.3543,-4.3467,-4.3481,-4.3426,-4.3477,-4.3463,-4.3487,-4.3446,-4.3434,-4.343,-4.3415,-4.3426,-4.3563,-4.3681,-4.344,-4.3448,-4.3925,-4.3938,-4.395,-4.4174,0,0,0,0,0,0,-4.3385,-4.3408,-4.3487,-4.3471,-4.3486,-4.3669,-4.3484,-4.3469,-4.3502,-4.3482,-4.3477,-4.3468,-4.3409,-4.3552,-4.3571,-4.3688,-4.3454,-4.3914,-4.3931,-4.3946,-4.4156,-4.4193,-4.4224,0,0,0,0,0,-4.3378,-4.355,-4.3492,-4.3511,-4.3583,-4.3676,-4.3684,-4.3612,-4.3512,-4.3592,-4.3564,-4.3469,-4.3664,-4.3567,-4.3588,-4.3709,-4.3907,-4.3926,-4.3945,-4.414,-4.4185,-4.4223,0,0,0,0,0,0,-4.3583,-4.3546,-4.3482,-4.3653,-4.3669,-4.3644,-4.3741,-4.3662,-4.3707,-4.3686,-4.3595,-4.3596,-4.3748,-4.3741,-4.3634,-4.391,-4.3768,-4.3792,-4.391,-4.3952,-4.3986,-4.3985,-4.3461,0,0,0,0,0,-4.3648,-4.3726,-4.3689,-4.3844,-4.3855,-4.3798,-4.3835,-4.3778,-4.379,-4.3796,-4.3779,-4.3796,-4.386,-4.3905,-4.3963,-4.4153,-4.4149,-4.4246,-4.428,-4.4309,-4.4331,-4.4431,-4.4474,-4.4017,-4.4017,-4.4017,0,0,-4.3784,-4.3773,-4.3828,-4.3885,-4.389,-4.3973,-4.3804,-4.3899,-4.396,-4.3811,-4.3939,-4.3927,-4.3939,-4.4104,-4.4176,-4.4103,-4.4456,-4.4333,-4.4356,-4.4363,-4.4455,-4.4499,-4.4537,-4.403,-4.4028,-4.4026,0,0,-4.4073,-4.4073,-4.4201,-4.421,-4.422,-4.418,-4.4211,-4.4197,-4.4184,-4.4311,-4.42,-4.4271,-4.4385,-4.4398,-4.442,-4.4713,-4.4627,-4.4734,-4.4914,-4.5013,-4.5049,-4.508,-4.5186,-4.5225,-4.4756,-4.4757,-4.4757,0,-4.4241,-4.4361,-4.4278,-4.438,-4.4409,-4.4276,-4.4406,-4.4418,-4.4448,-4.447,-4.4388,-4.4528,-4.4527,-4.4693,-4.4764,-4.4786,-4.4819,-4.4736,-4.505,-4.5081,-4.5109,-4.5209,-4.5248,-4.477,-4.4769,-4.4767,-4.4766,0,-4.4566,-4.4651,-4.4754,-4.4784,-4.4824,-4.494,-4.4875,-4.4925,-4.4864,-4.4834,-4.4964,-4.4958,-4.5012,-4.5046,-4.4988,-4.5205,-4.5159,-4.5066,-4.4921,-4.5167,-4.5259,-4.5297,-4.4789,-4.4784,-4.478,-4.4777,0,0,-4.4988,-4.4969,-4.5009,-4.5021,-4.5021,-4.5085,-4.5195,-4.5246,-4.5292,-4.5315,-4.5405,-4.5504,-4.5417,-4.5442,-4.5383,-4.547,-4.5703,-4.5365,-4.5363,-4.5429,-4.5942,-4.6014,-4.6059,-4.5645,-4.5652,-4.5658,-4.5941,0,-4.5271,-4.5456,-4.5385,-4.5577,-4.5654,-4.5528,-4.5624,-4.5635,-4.5608,-4.567,-4.564,-4.5713,-4.5591,-4.5605,-4.5685,-4.5658,-4.5805,-4.5636,-4.5729,-4.5734,-4.5732,-4.6107,-4.6184,-4.6452,-4.5976,-4.5982,-4.5987,0,-4.5626,-4.5664,-4.5863,-4.5849,-4.5879,-4.5966,-4.6007,-4.6068,-4.6078,-4.6052,-4.608,-4.6002,-4.6109,-4.5963,-4.6109,-4.5996,-4.6029,-4.6022,-4.603,-4.6037,-4.5877,-4.6126,-4.6535,-4.6577,-4.6043,-4.6038,-4.6034,0,-4.5915,-4.6015,-4.6147,-4.6161,-4.6148,-4.6212,-4.621,-4.6211,-4.6247,-4.6283,-4.6305,-4.6354,-4.6381,-4.642,-4.6358,-4.6257,-4.6513,-4.6362,-4.6496,-4.6498,-4.6557,-4.6555,-4.6979,-4.6577,-4.6576,-4.6575,-4.6575,0,-4.6239,-4.6367,-4.6277,-4.6359,-4.6497,-4.6413,-4.6553,-4.6536,-4.6539,-4.6615,-4.6509,-4.6583,-4.6495,-4.6561,-4.6513,-4.6642,-4.6654,-4.6637,-4.6623,-4.6648,-4.6651,-4.667,-4.665,-4.6586,-4.6584,-4.6582,-4.658,0,-4.6587,-4.6531,-4.6667,-4.6643,-4.664,-4.6743,-4.6723,-4.6797,-4.6762,-4.6861,-4.6879,-4.6825,-4.6897,-4.6838,-4.6908,-4.6875,-4.7046,-4.7005,-4.7044,-4.7033,-4.717,-4.7159,-4.7623,-4.768,-4.7241,-4.7245,-4.7248,0,-4.6798,-4.6893,-4.6879,-4.6922,-4.6926,-4.6997,-4.7032,-4.6953,-4.6994,-4.7011,-4.7084,-4.7147,-4.7193,-4.7313,-4.7281,-4.7334,-4.7294,-4.7453,-4.7301,-4.7323,-4.7298,-4.7294,-4.7303,-4.7485,-4.749,-4.7494,-4.7498,0,-4.718,-4.7147,-4.7202,-4.7248,-4.7293,-4.7325,-4.7349,-4.739,-4.7308,-4.736,-4.7432,-4.7468,-4.7538,-4.7603,-4.7644,-4.7641,-4.7558,-4.7545,-4.7579,-4.7606,-4.7625,-4.7618,-4.7129,-4.7535,-4.7532,-4.7529,-4.7527,-4.7525,-4.7466,-4.7544,-4.7547,-4.7611,-4.762,-4.7645,-4.7713,-4.7687,-4.7745,-4.7796,-4.7745,-4.7833,-4.7838,-4.7886,-4.7894,-4.7961,-4.7895,-4.7944,-4.7957,-4.797,-4.7991,-4.7613,-4.7968,-4.7967,-4.7966,-4.7965,-4.7964,0,-4.7843,-4.7838,-4.7898,-4.7934,-4.7985,-4.7899,-4.792,-4.7969,-4.8047,-4.8059,-4.8106,-4.8189,-4.825,-4.8221,-4.8275,-4.8334,-4.8297,-4.8351,-4.8347,-4.8348,-4.8046,-4.8012,-4.838,-4.838,-4.838,-4.838,-4.838,-4.838,-4.8045,-4.8174,-4.8141,-4.8273,-4.8266,-4.835,-4.837,-4.8392,-4.8402,-4.8498,-4.8548,-4.8529,-4.8525,-4.8577,-4.8629,-4.8619,-4.8645,-4.8714,-4.869,-4.841,-4.8369,-4.833,-4.8297,-4.8719,-4.872,-4.8986,-4.8988,-4.899]},{"header":{"parameterUnit":"m.s-1","parameterCategory":1,"la1":30.2991,"la2":30.254,"lo1":-89.0895,"lo2":-89.0444,"dy":0.0017,"dx":0.0017,"nx":28,"ny":28,"refTime":"2024-10-18T21:00:00:Z","depth":0,"parameterNumber":3,"parameterNumberName":"V-component_of_WINDS"},"data":[0,0,0,0,0,0,0,0,0,0,0,0,0,0,0,0,0,0,0,0,0,0,0,0,0,0,0,0,0,0,0,0,0,0,0,0,0,0,0,0,0,0,0,0,0,0,0,0,0,0,0,0,0,0,0,0,0,0,-2.9636,-2.9636,0,-2.9672,-2.9672,-2.9672,-2.9662,-2.9661,-2.966,-2.966,-2.9695,-2.9696,-2.9698,0,0,0,0,0,0,0,0,0,0,0,0,0,-2.9554,-2.9556,-2.9636,-2.9636,-2.9637,-2.9672,-2.9672,-2.9673,-2.9662,-2.9661,-2.966,-2.9659,-2.9694,-2.9696,-2.9698,0,0,0,0,0,0,0,0,0,0,0,0,0,-2.959,-2.9556,-2.9636,-2.9636,-2.9636,-2.9672,-2.9672,-2.9673,-2.9662,-2.9661,-2.966,-2.9659,-2.9694,-2.9696,-2.9698,-2.9736,0,0,-2.9706,-2.9707,0,0,0,0,0,0,0,0,-2.9588,-2.9593,-2.9635,-2.9636,-2.9636,-2.9661,-2.9656,-2.9694,-2.9663,-2.9652,-2.966,-2.9658,-2.9684,-2.9687,-2.9697,-2.9737,-2.9739,-2.9706,-2.9707,-2.9708,-2.9709,0,0,0,0,0,0,0,-2.9585,-2.9591,-2.965,-2.9636,-2.9636,-2.9633,-2.9636,-2.9663,-2.9674,-2.9653,-2.9652,-2.9657,-2.9684,-2.9694,-2.9697,-2.9739,-2.9706,-2.9708,-2.971,-2.971,-2.9809,-2.981,0,0,0,0,0,0,-2.9583,-2.9589,-2.9649,-2.9651,-2.9609,-2.9635,-2.9639,-2.9654,-2.9674,-2.9676,-2.9658,-2.9656,-2.9691,-2.9694,-2.9698,-2.9741,-2.9708,-2.9711,-2.9712,-2.9808,-2.9809,-2.9811,0,0,0,0,0,0,-2.9581,-2.9588,-2.9647,-2.962,-2.9627,-2.9638,-2.9654,-2.9656,-2.9665,-2.9677,-2.9679,-2.9666,-2.969,-2.9695,-2.9726,-2.9742,-2.9712,-2.9714,-2.9807,-2.9808,-2.981,-2.9829,0,0,0,0,0,0,-2.9579,-2.9588,-2.9603,-2.962,-2.9629,-2.9675,-2.9656,-2.9657,-2.967,-2.9668,-2.9686,-2.9687,-2.9689,-2.9722,-2.9728,-2.9745,-2.9716,-2.9805,-2.9807,-2.9809,-2.9826,-2.9831,-2.9834,0,0,0,0,0,-2.9576,-2.9607,-2.9604,-2.9611,-2.9648,-2.9676,-2.9681,-2.9683,-2.9671,-2.9686,-2.9693,-2.9687,-2.974,-2.9726,-2.9732,-2.975,-2.9804,-2.9807,-2.9809,-2.9825,-2.983,-2.9834,0,0,0,0,0,0,-2.9591,-2.9609,-2.9606,-2.9644,-2.9658,-2.9674,-2.9693,-2.9689,-2.9707,-2.9705,-2.9706,-2.971,-2.9741,-2.9749,-2.9733,-2.9786,-2.977,-2.9774,-2.9779,-2.9785,-2.9788,-2.9785,-2.9718,0,0,0,0,0,-2.9599,-2.9621,-2.9636,-2.9667,-2.9675,-2.9683,-2.9695,-2.9695,-2.9711,-2.9717,-2.9726,-2.974,-2.976,-2.9773,-2.9792,-2.9828,-2.983,-2.9843,-2.9847,-2.985,-2.9853,-2.987,-2.9876,-2.9819,-2.9819,-2.9819,0,0,-2.9616,-2.9628,-2.9642,-2.9671,-2.9682,-2.9704,-2.9688,-2.9712,-2.9728,-2.972,-2.9749,-2.9757,-2.9772,-2.9805,-2.982,-2.9813,-2.9869,-2.9854,-2.9856,-2.9857,-2.9874,-2.9879,-2.9884,-2.9821,-2.9821,-2.982,0,0,-2.9656,-2.9669,-2.9695,-2.9707,-2.9724,-2.9729,-2.9735,-2.9751,-2.9756,-2.9785,-2.9779,-2.9797,-2.9832,-2.9842,-2.9852,-2.9894,-2.9888,-2.99,-2.992,-2.9937,-2.9942,-2.9945,-2.9958,-2.9963,-2.9904,-2.9904,-2.9904,0,-2.9674,-2.9707,-2.9709,-2.9733,-2.9745,-2.9739,-2.9765,-2.9776,-2.9798,-2.9806,-2.9797,-2.9839,-2.9849,-2.9883,-2.9893,-2.9903,-2.9908,-2.9898,-2.9941,-2.9945,-2.9949,-2.9961,-2.9966,-2.9905,-2.9905,-2.9905,-2.9905,0,-2.9726,-2.9749,-2.9769,-2.979,-2.9804,-2.9829,-2.9834,-2.9848,-2.9846,-2.9851,-2.988,-2.9892,-2.9912,-2.9921,-2.992,-2.9954,-2.9949,-2.9941,-2.9924,-2.9955,-2.9967,-2.9971,-2.9907,-2.9906,-2.9906,-2.9906,0,0,-2.9778,-2.9799,-2.9806,-2.9815,-2.9833,-2.985,-2.9873,-2.9893,-2.9904,-2.9919,-2.9938,-2.9966,-2.9958,-2.9969,-2.997,-2.9985,-3.0014,-2.9974,-2.9975,-2.998,-3.005,-3.0055,-3.006,-3.0011,-3.0012,-3.0013,-3.0048,0,-2.9818,-2.986,-2.9862,-2.99,-2.992,-2.9914,-2.9934,-2.9946,-2.9951,-2.9967,-2.9973,-2.9992,-2.9981,-2.9987,-3.0002,-3.0008,-3.0028,-3.0005,-3.0026,-3.0027,-3.0021,-3.0067,-3.0073,-3.0105,-3.0053,-3.0054,-3.0054,0,-2.9871,-2.9887,-2.9927,-2.994,-2.9948,-2.9966,-2.9983,-3.0,-3.0013,-3.0015,-3.0027,-3.0025,-3.0047,-3.0031,-3.0061,-3.0045,-3.0054,-3.0058,-3.0059,-3.006,-3.0042,-3.0067,-3.0116,-3.012,-3.0062,-3.0061,-3.0061,0,-2.9902,-2.9934,-2.9961,-2.9969,-2.9985,-2.9998,-3.0005,-3.0017,-3.0028,-3.0043,-3.0049,-3.0067,-3.0076,-3.0088,-3.009,-3.0079,-3.0119,-3.0104,-3.012,-3.012,-3.0128,-3.0127,-3.0177,-3.0136,-3.0136,-3.0136,-3.0136,0,-2.9946,-2.997,-2.9975,-2.9992,-3.0017,-3.0019,-3.0044,-3.005,-3.006,-3.0077,-3.0073,-3.0088,-3.009,-3.0106,-3.0107,-3.013,-3.0135,-3.0136,-3.0136,-3.0136,-3.0135,-3.0141,-3.0138,-3.0138,-3.0137,-3.0137,-3.0137,0,-2.9985,-2.9989,-3.0018,-3.0031,-3.0034,-3.0052,-3.0063,-3.0078,-3.0082,-3.0102,-3.0107,-3.0113,-3.0131,-3.0134,-3.0156,-3.0156,-3.0183,-3.0182,-3.0179,-3.0178,-3.0194,-3.0192,-3.0248,-3.0254,-3.0211,-3.0211,-3.0211,0,-3.0012,-3.003,-3.0044,-3.0055,-3.0062,-3.008,-3.0091,-3.0092,-3.0104,-3.0119,-3.0131,-3.0149,-3.0163,-3.0191,-3.0197,-3.0212,-3.021,-3.0229,-3.0212,-3.0211,-3.0208,-3.0206,-3.0207,-3.0231,-3.0232,-3.0232,-3.0232,0,-3.0058,-3.0059,-3.0075,-3.0092,-3.0105,-3.0118,-3.013,-3.0139,-3.0142,-3.0154,-3.0172,-3.0183,-3.0204,-3.0221,-3.0236,-3.0242,-3.0237,-3.0238,-3.0242,-3.0241,-3.0238,-3.0238,-3.0186,-3.0236,-3.0236,-3.0235,-3.0235,-3.0235,-3.0091,-3.0106,-3.0117,-3.0135,-3.0144,-3.0155,-3.0169,-3.0174,-3.0189,-3.0206,-3.0206,-3.0226,-3.0236,-3.0256,-3.0263,-3.0277,-3.0271,-3.0278,-3.0279,-3.028,-3.0281,-3.0237,-3.028,-3.028,-3.028,-3.028,-3.028,0,-3.0136,-3.0142,-3.0158,-3.0175,-3.0188,-3.0183,-3.0195,-3.0206,-3.0224,-3.0234,-3.0247,-3.0267,-3.0283,-3.0289,-3.0304,-3.0314,-3.0312,-3.0318,-3.0316,-3.0317,-3.0287,-3.0281,-3.0319,-3.0319,-3.0319,-3.0319,-3.0319,-3.0319,-3.016,-3.0184,-3.0186,-3.0214,-3.022,-3.0239,-3.0247,-3.0256,-3.0264,-3.0286,-3.0299,-3.0303,-3.0311,-3.0327,-3.034,-3.0342,-3.0347,-3.0353,-3.0353,-3.0324,-3.032,-3.0316,-3.031,-3.0354,-3.0355,-3.0383,-3.0383,-3.0383]}]]